Location: *
(26.3740°N, 146.7320°E)
Time: 07:00:52
(UTC+00:00)

Daily predictions for brighter satellites

Satellite Brightness Start Highest point End
(mag) Time Altitude Azimuth Time Altitude Azimuth Time Altitude Azimuth
Atlas Centaur 2 3.5 17:22:31 34° ENE 17:22:31 34° ENE 17:25:17 10° ENE
Kakehashi 4.0 17:25:09 67° ESE 17:25:09 67° ESE 17:33:22 10° ESE
ATLAS 3B R/B 4.4 17:26:53 14° SSE 17:32:07 29° ESE 17:38:13 10° NE
Cosmos 2263 Rocket 2.2 17:55:36 74° N 17:55:36 74° N 18:00:48 10° NNE
Cosmos 1607 3.9 18:01:13 64° NW 18:01:13 64° NW 18:07:14 10° NNE
ADEOS II 2.8 17:59:24 10° N 18:03:00 41° NNW 18:03:00 41° NNW
Okean 1 4.4 18:14:13 35° N 18:14:13 35° N 18:16:36 10° N
Cosmos 1500 3.8 18:09:43 10° N 18:13:24 53° E 18:17:04 10° SSE
CZ-4B R/B 4.5 18:18:51 10° N 18:20:37 23° NNW 18:20:37 23° NNW
Okean O Rocket 1.6 18:22:54 10° N 18:26:59 58° WNW 18:26:59 58° WNW
ISS -1.9 18:26:59 21° N 18:28:23 29° NE 18:31:18 10° ESE
GOES 2 Rocket 3.0 18:29:24 54° NW 18:30:09 66° N 18:34:40 10° E
Intercosmos 25 Rocket 3.8 18:26:57 10° S 18:33:17 84° W 18:37:16 10° N
IUS-9 SRM-1 4.3 18:31:09 34° WSW 18:33:58 53° S 19:03:25 10° ESE
CZ-4B R/B 3.0 18:28:52 10° N 18:34:08 70° WNW 18:38:37 15° SSW
Meteor 1-31 Rocket 2.9 18:31:16 10° NNE 18:35:08 70° E 18:38:56 10° S
USA 238 DEB 3.9 18:30:02 10° SSW 18:36:57 75° ESE 18:43:53 10° NNE
USA 238 3.9 18:30:10 10° SSW 18:37:04 74° ESE 18:44:00 10° NNE
CZ-4B R/B 4.0 18:35:17 10° NNE 18:39:13 77° ESE 18:43:20 10° S
CZ-3 Stage 3 2.4 18:42:21 35° SSW 18:43:24 54° SSE 18:49:47 10° ENE
Intelsat 5-2 Rocket 2.5 18:44:16 47° SW 18:44:46 55° S 18:49:22 10° E
Palapa 6 Rocket 4.1 18:42:36 31° WSW 18:45:28 60° S 18:52:29 10° ESE
OAO 3 Rocket 3.5 18:48:26 33° WSW 18:49:58 45° SSW 18:54:26 10° SE
Cosmos 1666 3.8 18:51:33 10° N 18:55:11 45° E 18:58:49 10° SSE
S3M 4.4 18:49:30 10° S 18:55:38 67° E 19:01:52 10° NNE
Cosmos 1743 2.9 18:54:37 10° N 18:58:32 74° E 19:02:24 10° S
Delta 2 Rocket 4.1 18:55:19 24° WSW 18:58:45 71° NNW 19:04:32 10° ENE
Nadezhda 2 Rocket 4.4 18:52:31 10° N 18:58:51 75° W 19:05:03 10° S
Cosmos 2084 3.1 18:56:46 10° NNW 19:00:38 73° WSW 19:04:41 10° SSE
Cosmos 1437 Rocket 3.4 19:03:44 10° NNW 19:07:17 33° W 19:10:53 10° SSW
Cosmos 332 Rocket 4.1 19:02:59 10° N 19:07:46 70° ENE 19:12:31 10° SSE
Atlas Centaur 2 2.2 19:05:09 18° W 19:09:14 55° N 19:13:39 10° ENE
ASTRO E2 3.1 19:06:39 17° SW 19:09:34 58° SSE 19:13:32 10° ENE
IDEFIX/ARIANE 42P 4.2 19:05:44 10° NNE 19:10:36 38° E 19:15:26 10° SSE
Cosmos 1486 Rocket 4.1 19:07:10 10° SSW 19:12:27 86° ESE 19:17:42 10° NNE
SEDSat Delta rocket 3.5 19:07:36 15° WNW 19:12:32 81° SSW 19:17:37 10° ESE
Cosmos 371 Rocket 3.7 19:08:59 10° N 19:13:49 67° ENE 19:18:37 10° SSE
NOSS 3-2 (C) 4.5 19:08:37 10° S 19:14:06 46° ESE 19:19:55 10° NE
Meteor 1-28 Rocket 3.7 19:11:21 10° SSE 19:15:01 64° ENE 19:18:42 10° N
MTI 3.7 19:14:53 10° S 19:18:06 84° WSW 19:21:20 10° NNW
Skynet4D Del rocket 3.6 19:13:37 15° W 19:18:21 86° S 19:23:43 10° E
ATLAS 3B R/B 3.2 19:15:28 10° SW 19:22:33 44° WNW 19:29:25 10° NNE
Cosmos 468 Rocket 4.2 19:18:07 10° NNW 19:23:27 78° ENE 19:28:43 10° SSE
BREEZE-M DEB (TANK) 3.1 19:16:08 10° NW 19:24:11 44° SW 19:27:05 10° SSE
Cosmos 1544 Rocket 4.1 19:21:33 10° NNW 19:25:29 34° W 19:29:25 10° SSW
Okean-O 2.7 19:21:20 10° N 19:25:40 56° WNW 19:30:00 10° SSW
GPS 2-14 Rocket1 3.6 19:24:18 11° WSW 19:27:39 34° S 19:31:06 10° ESE
Okean 2 4.0 19:24:00 10° S 19:28:00 62° E 19:32:02 10° NNE
CZ-2C R/B 4.0 19:24:48 10° S 19:29:13 45° W 19:33:44 10° NNW
CZ-2C R/B 3.6 19:26:35 10° NNE 19:31:00 45° E 19:35:30 10° S
Cosmos 1844 Rocket 2.8 19:26:06 10° SSW 19:31:39 61° WNW 19:37:16 10° N
Feng Yun 1-1 Rocket 4.4 19:26:57 10° N 19:32:09 51° WNW 19:37:25 10° SSW
BREEZE-M DEB (TANK) 3.5 19:30:03 10° SSW 19:32:26 39° ESE 19:37:06 10° NE
Cosmos 1455 Rocket 3.7 19:29:46 10° NNW 19:33:34 31° W 19:37:22 10° SSW
Cosmos 1943 4.0 19:29:34 10° NW 19:34:25 30° WSW 19:39:14 10° SSW
ASC 2 Rocket 3.1 19:36:31 10° W 19:40:29 62° S 19:45:00 10° ESE
SKYMED 2 3.7 19:36:13 10° SSE 19:40:33 85° ENE 19:44:53 10° N
CZ-3 R/B 2.0 19:32:51 10° W 19:49:09 82° N 19:53:34 10° ENE
H-2A R/B (2) 4.1 20:01:54 10° WNW 20:28:02 42° SW 20:32:51 10° SSE
